Beaufort, SC

11:56 PM EDT on July 23, 2017 (GMT -0400)
Beaufort

Weather History for KARW - May, 2014

Change the Weather History Date:

Sunday, May 4, 2014

  Actual Average (KNBC) Record (KNBC)
Temperature  
Mean Temperature 70 °F -  
Max Temperature 82 °F 79 °F 94 °F (1959)
Min Temperature 59 °F 58 °F 38 °F (1939)
Cooling Degree Days 6    
Growing Degree Days 20 (Base 50)    
Moisture  
Dew Point 53 °F    
Average Humidity 56    
Maximum Humidity 82    
Minimum Humidity 32    
Precipitation  
Precipitation 0.00 in - - ()
Sea Level Pressure  
Sea Level Pressure 30.01 in    
Wind  
Wind Speed 7 mph (West)    
Max Wind Speed 12 mph    
Max Gust Speed -    
Visibility 8 miles    
Events      
Averages and records for this station are not official NWS values.
T = Trace of Precipitation, MM = Missing Value Source: NWS Daily Summary

Daily Weather History Graph

Daily Weather History Graph

Search for Another Location

Airport or City:

Trip Planner

Search our weather history database for the weather conditions in past years. The results will help you decide how hot, cold, wet, or windy it might be!

Date:

Astronomy

May. 04, 2014 Rise Set
Actual Time 6:33 AM EDT 8:05 PM EDT
Civil Twilight 6:06 AM EDT 8:32 PM EDT
Nautical Twilight 5:35 AM EDT 9:03 PM EDT
Astronomical Twilight 5:02 AM EDT 9:36 PM EDT
Moon 10:57 AM EDT (5/4) 12:08 AM EDT (5/4)
Length of Visible Light 14h 25m
Length of Day
13h 32m
Waxing Crescent, 27% of the Moon is Illuminated
May 4
Waxing Crescent
May 6
First Quarter
May 14
Full
May 21
Last Quarter
May 28
New

Hourly Weather History & Observations

Time (EDT) Temp. Heat Index Dew Point Humidity Pressure Visibility Wind Dir Wind Speed Gust Speed Precip Events Conditions
12:15 AM 59.0 °F - 53.6 °F 82% 30.01 in 10.0 mi West 6.9 mph - N/A   Clear
12:35 AM 59.0 °F - 53.6 °F 82% 30.01 in 7.0 mi West 3.5 mph - N/A   Clear
12:55 AM 59.0 °F - 53.6 °F 82% 30.01 in 7.0 mi West 4.6 mph - N/A   Clear
1:15 AM 59.0 °F - 53.6 °F 82% 30.01 in 7.0 mi West 4.6 mph - N/A   Clear
1:35 AM 60.8 °F - 53.6 °F 77% 30.00 in 7.0 mi WNW 5.8 mph - N/A   Clear
1:55 AM 62.6 °F - 53.6 °F 72% 30.00 in 7.0 mi West 5.8 mph - N/A   Clear
2:15 AM 62.6 °F - 53.6 °F 72% 29.99 in 10.0 mi WNW 6.9 mph - N/A   Clear
2:35 AM 62.6 °F - 51.8 °F 68% 29.99 in 7.0 mi West 6.9 mph - N/A   Clear
2:55 AM 62.6 °F - 51.8 °F 68% 29.99 in 7.0 mi WNW 6.9 mph - N/A   Clear
3:15 AM 60.8 °F - 51.8 °F 72% 29.99 in 7.0 mi WNW 5.8 mph - N/A   Clear
3:35 AM 60.8 °F - 53.6 °F 77% 29.99 in 7.0 mi WNW 4.6 mph - N/A   Clear
3:55 AM 60.8 °F - 51.8 °F 72% 29.99 in 10.0 mi WNW 5.8 mph - N/A   Clear
4:15 AM 60.8 °F - 51.8 °F 72% 29.99 in 7.0 mi West 6.9 mph - N/A   Clear
4:35 AM 60.8 °F - 51.8 °F 72% 29.99 in 10.0 mi West 4.6 mph - N/A   Clear
4:55 AM 60.8 °F - 51.8 °F 72% 29.99 in 7.0 mi WNW 6.9 mph - N/A   Clear
5:15 AM 60.8 °F - 51.8 °F 72% 29.99 in 7.0 mi WNW 8.1 mph - N/A   Clear
5:35 AM 60.8 °F - 51.8 °F 72% 30.00 in 10.0 mi WNW 8.1 mph - N/A   Clear
5:55 AM 60.8 °F - 51.8 °F 72% 30.00 in 10.0 mi WNW 6.9 mph - N/A   Clear
6:15 AM 60.8 °F - 50.0 °F 68% 30.01 in 7.0 mi WNW 6.9 mph - N/A   Clear
6:35 AM 60.8 °F - 50.0 °F 68% 30.02 in 7.0 mi WNW 6.9 mph - N/A   Clear
6:55 AM 60.8 °F - 50.0 °F 68% 30.02 in 7.0 mi WNW 6.9 mph - N/A   Clear
7:15 AM 62.6 °F - 51.8 °F 68% 30.03 in 7.0 mi WNW 8.1 mph - N/A   Clear
7:35 AM 62.6 °F - 51.8 °F 68% 30.04 in 7.0 mi NW 6.9 mph - N/A   Clear
7:55 AM 64.4 °F - 51.8 °F 64% 30.04 in 7.0 mi NW 6.9 mph - N/A   Clear
8:15 AM 64.4 °F - 51.8 °F 64% 30.04 in 5.0 mi NW 8.1 mph - N/A   Haze
8:35 AM 66.2 °F - 51.8 °F 60% 30.04 in 7.0 mi NW 9.2 mph - N/A   Clear
8:55 AM 68.0 °F - 51.8 °F 56% 30.05 in 7.0 mi NW 8.1 mph - N/A   Clear
9:15 AM 69.8 °F - 53.6 °F 56% 30.06 in 7.0 mi NW 11.5 mph - N/A   Clear
9:35 AM 69.8 °F - 53.6 °F 56% 30.06 in 5.0 mi NW 9.2 mph - N/A   Haze
9:55 AM 71.6 °F - 53.6 °F 53% 30.06 in 7.0 mi NW 10.4 mph - N/A   Clear
10:15 AM 73.4 °F - 53.6 °F 50% 30.06 in 7.0 mi NW 5.8 mph - N/A   Clear
10:35 AM 75.2 °F - 53.6 °F 47% 30.06 in 7.0 mi NW 6.9 mph - N/A   Clear
10:55 AM 77.0 °F - 51.8 °F 41% 30.06 in 7.0 mi NW 9.2 mph - N/A   Clear
11:15 AM 78.8 °F - 51.8 °F 39% 30.06 in 7.0 mi NW 8.1 mph - N/A   Clear
11:35 AM 78.8 °F - 51.8 °F 39% 30.06 in 5.0 mi WNW 9.2 mph - N/A   Haze
11:55 AM 80.6 °F - 51.8 °F 37% 30.06 in 7.0 mi NW 6.9 mph - N/A   Clear
12:15 PM 80.6 °F - 51.8 °F 37% 30.05 in 7.0 mi WNW 9.2 mph - N/A   Clear
12:35 PM 80.6 °F - 50.0 °F 34% 30.05 in 5.0 mi WNW 9.2 mph - N/A   Haze
12:55 PM 80.6 °F - 50.0 °F 34% 30.05 in 7.0 mi WNW 6.9 mph - N/A   Clear
1:15 PM 80.6 °F - 50.0 °F 34% 30.04 in 5.0 mi NW 5.8 mph - N/A   Haze
1:35 PM 82.4 °F - 50.0 °F 32% 30.03 in 10.0 mi West 4.6 mph - N/A   Clear
1:55 PM 82.4 °F - 50.0 °F 32% 30.02 in 7.0 mi NW 9.2 mph - N/A   Clear
2:15 PM 82.4 °F - 51.8 °F 35% 30.02 in 7.0 mi WNW 6.9 mph - N/A   Clear
2:35 PM 82.4 °F - 51.8 °F 35% 30.01 in 7.0 mi SSW 4.6 mph - N/A   Clear
2:55 PM 82.4 °F 81.4 °F 53.6 °F 37% 30.00 in 7.0 mi SSE 4.6 mph - N/A   Clear
3:15 PM 82.4 °F - 51.8 °F 35% 29.99 in 7.0 mi SE 3.5 mph - N/A   Clear
3:35 PM 82.4 °F 81.4 °F 53.6 °F 37% 29.99 in 10.0 mi SW 5.8 mph - N/A   Clear
3:55 PM 82.4 °F 81.4 °F 53.6 °F 37% 29.98 in 7.0 mi SSW 3.5 mph - N/A   Clear
4:15 PM 80.6 °F 80.5 °F 55.4 °F 42% 29.98 in 10.0 mi South 5.8 mph - N/A   Clear
4:35 PM 80.6 °F 80.5 °F 55.4 °F 42% 29.97 in 7.0 mi SSW 9.2 mph - N/A   Clear
5:15 PM 80.6 °F 80.5 °F 55.4 °F 42% 29.97 in 7.0 mi SSE 5.8 mph - N/A   Clear
5:35 PM 80.6 °F 80.3 °F 53.6 °F 39% 29.97 in 7.0 mi South 5.8 mph - N/A   Clear
5:55 PM 78.8 °F - 53.6 °F 42% 29.96 in 7.0 mi SSE 6.9 mph - N/A   Clear
6:15 PM 78.8 °F - 51.8 °F 39% 29.96 in 7.0 mi South 6.9 mph - N/A   Clear
6:35 PM 77.0 °F - 53.6 °F 44% 29.97 in 7.0 mi SSW 8.1 mph - N/A   Clear
6:55 PM 75.2 °F - 53.6 °F 47% 29.97 in 10.0 mi South 10.4 mph - N/A   Clear
7:15 PM 75.2 °F - 53.6 °F 47% 29.97 in 7.0 mi South 5.8 mph - N/A   Clear
7:35 PM 73.4 °F - 55.4 °F 53% 29.98 in 7.0 mi South 5.8 mph - N/A   Clear
7:55 PM 73.4 °F - 55.4 °F 53% 29.98 in 7.0 mi South 6.9 mph - N/A   Clear
8:15 PM 71.6 °F - 55.4 °F 57% 29.98 in 10.0 mi SSW 5.8 mph - N/A   Clear
8:35 PM 71.6 °F - 53.6 °F 53% 29.99 in 7.0 mi SSW 5.8 mph - N/A   Clear
8:55 PM 71.6 °F - 53.6 °F 53% 29.99 in 10.0 mi SSW 6.9 mph - N/A   Clear
9:15 PM 69.8 °F - 53.6 °F 56% 29.99 in 7.0 mi SSW 5.8 mph - N/A   Clear
9:35 PM 69.8 °F - 53.6 °F 56% 30.00 in 10.0 mi SSW 5.8 mph - N/A   Clear
9:55 PM 69.8 °F - 55.4 °F 60% 30.00 in 7.0 mi SSW 6.9 mph - N/A   Clear
10:15 PM 69.8 °F - 55.4 °F 60% 30.01 in 10.0 mi SSW 6.9 mph - N/A   Clear
10:35 PM 71.6 °F - 55.4 °F 57% 30.01 in 7.0 mi SSW 8.1 mph - N/A   Clear
10:55 PM 69.8 °F - 55.4 °F 60% 30.01 in 10.0 mi SSW 6.9 mph - N/A   Clear
11:15 PM 69.8 °F - 59.0 °F 68% 30.01 in 7.0 mi SSW 6.9 mph - N/A   Clear
11:35 PM 69.8 °F - 55.4 °F 60% 30.01 in 10.0 mi SSW 5.8 mph - N/A   Clear
11:55 PM 69.8 °F - 57.2 °F 64% 30.01 in 10.0 mi SW 6.9 mph - N/A   Clear